(209517) = 2004 RW307 = 2014 SP337

Discovered at Socorro on 2004-09-13 by LINEAR.

Orbit

Orbit type: Main Belt

Note: WebGL enabled browser required.

epoch2024-03-31.0
epoch JD2460400.5
perihelion date2025-02-02.94070
perihelion JD2460709.44070
argument of perihelion (°)219.67690
ascending node (°)199.86304
inclination (°)4.76982
eccentricity0.1392854
perihelion distance (AU)1.9202926
Tisserand w.r.t. Jupiter3.6
ΔV w.r.t. Earth (km/sec)8.7
semimajor axis (AU)2.2310444
mean anomaly (°)268.62726
mean daily motion (°/day)0.29576140
aphelion distance (AU)2.542
period (years)3.33
P-vector [x]0.50768893
P-vector [y]0.81006355
P-vector [z]0.29334109
Q-vector [x]-0.86107706
Q-vector [y]0.48826360
Q-vector [z]0.14193291
absolute magnitude17.47
phase slope0.15
uncertainty0
referenceMPEC 2024-C128
observations used261
oppositions14
arc length (days)10476
first opposition used1994
last opposition used2023
residual rms (arc-secs)0.73
perturbers coarse indicatorM-v
perturbers precise indicator003Ek
first observation date used1994-10-09.0
last observation date used2023-06-15.0
computer nameMPCLINUX
JD of orbit computation2456966.822739
perihelion JD uncertainty (days)1.0187E-04
argument of perihelion uncertainty (°)5.9692E-05
ascending node uncertainty (°)5.1835E-05
inclination uncertainty (°)1.1966E-05
eccentricity uncertainty 8.0216E-08
perihelion distance uncertainty (AU)1.7951E-07
Minimum Orbit Intersection Distances (in AU)
for orbit epoch: 2460200.5, reference: E2024-CC8
Mercury1.60958
Venus1.19952
Earth0.93455
Mars0.41886
Jupiter2.7697
Saturn7.0705
Uranus16.0977
Neptune27.835

Observations

272 total observations over interval: 1994 10 09.21399 – 2023 06 15.342016
These data are available for download (format description).

Date (UT) J2000 RA J2000 Dec Magn Location Ref
1994 10 09.21399 00 46 59.93 +06 04 58.4   691 – Steward Observatory, Kitt Peak-Spacewatch MPS 120542
1994 10 09.23807 00 46 58.62 +06 04 44.8   691 – Steward Observatory, Kitt Peak-Spacewatch MPS 120542
1994 10 09.26255 00 46 57.29 +06 04 31.3 18.8 V 691 – Steward Observatory, Kitt Peak-Spacewatch MPS 120542
2001 12 18.31444 06 05 42.11 +14 30 44.3 19.1   704 – Lincoln Laboratory ETS, New Mexico MPS 118468
2001 12 18.32988 06 05 41.14 +14 30 43.3 19.1   704 – Lincoln Laboratory ETS, New Mexico MPS 118468
2001 12 18.34594 06 05 40.02 +14 30 41.3 19.2   704 – Lincoln Laboratory ETS, New Mexico MPS 118468
2001 12 18.36247 06 05 38.94 +14 30 40.1 19.6   704 – Lincoln Laboratory ETS, New Mexico MPS 118468
2002 01 09.25730 05 44 05.18 +14 29 30.5 19.7   704 – Lincoln Laboratory ETS, New Mexico MPS 118468
2002 01 09.27370 05 44 04.37 +14 29 32.1 20.1   704 – Lincoln Laboratory ETS, New Mexico MPS 118468
2002 01 09.30468 05 44 02.93 +14 29 33.4 19.7   704 – Lincoln Laboratory ETS, New Mexico MPS 118468
2003 05 22.30224 15 28 17.09 -14 04 16.2 21.3 V 691 – Steward Observatory, Kitt Peak-Spacewatch MPS 120542
2003 05 22.32943 15 28 15.42 -14 04 07.7 21.6 V 691 – Steward Observatory, Kitt Peak-Spacewatch MPS 120542
2003 05 22.35790 15 28 13.66 -14 03 59.9 21.8 V 691 – Steward Observatory, Kitt Peak-Spacewatch MPS 120542
2004 09 13.28663 01 06 35.51 +09 32 09.3 19.5   704 – Lincoln Laboratory ETS, New Mexico MPS 114583
2004 09 13.29801 01 06 35.25 +09 32 04.5 20.2   704 – Lincoln Laboratory ETS, New Mexico MPS 114583
2004 09 13.32077 01 06 34.46 +09 31 56.9 20.0   704 – Lincoln Laboratory ETS, New Mexico MPS 114583
2004 09 17.27709 01 04 29.24 +09 07 49.4 19.5   704 – Lincoln Laboratory ETS, New Mexico MPS 114583
2004 09 17.28877 01 04 28.76 +09 07 44.7 20.5   704 – Lincoln Laboratory ETS, New Mexico MPS 114583
2004 09 17.31213 01 04 28.01 +09 07 36.8 20.3   704 – Lincoln Laboratory ETS, New Mexico MPS 114583
2004 09 22.28823 01 01 16.31 +08 32 16.2 19.0 C 704 – Lincoln Laboratory ETS, New Mexico MPS 291439
2004 09 22.30039 01 01 15.70 +08 32 10.6 19.0 C 704 – Lincoln Laboratory ETS, New Mexico MPS 291439
2004 09 22.31253 01 01 15.09 +08 32 05.8 19.0 C 704 – Lincoln Laboratory ETS, New Mexico MPS 291439
2004 09 22.32467 01 01 14.60 +08 31 59.5 19.2 C 704 – Lincoln Laboratory ETS, New Mexico MPS 291439
2004 10 05.16799 00 51 00.19 +06 41 41.9 19.2 V 691 – Steward Observatory, Kitt Peak-Spacewatch MPS 116731
2004 10 05.19569 00 50 58.70 +06 41 26.5 19.1 V 691 – Steward Observatory, Kitt Peak-Spacewatch MPS 116731
2004 10 05.22422 00 50 57.15 +06 41 10.5 19.2 V 691 – Steward Observatory, Kitt Peak-Spacewatch MPS 116731
2004 10 05.22568 00 50 57.06 +06 41 10.0 18.7 R 699 – Lowell Observatory-LONEOS MPS 116731
2004 10 05.24594 00 50 56.01 +06 40 58.1   699 – Lowell Observatory-LONEOS MPS 116731
2004 10 05.26623 00 50 54.83 +06 40 47.4   699 – Lowell Observatory-LONEOS MPS 116731
2004 10 05.28652 00 50 53.72 +06 40 36.2   699 – Lowell Observatory-LONEOS MPS 116731
2004 10 07.28183 00 49 10.32 +06 21 56.4 19.2   704 – Lincoln Laboratory ETS, New Mexico MPS 116731
2004 10 07.29327 00 49 09.73 +06 21 50.0 19.3   704 – Lincoln Laboratory ETS, New Mexico MPS 116731
2004 10 07.30427 00 49 09.10 +06 21 44.2 19.6   704 – Lincoln Laboratory ETS, New Mexico MPS 116731
2004 10 07.31537 00 49 08.51 +06 21 37.8 19.7   704 – Lincoln Laboratory ETS, New Mexico MPS 116731
2004 10 07.32653 00 49 07.86 +06 21 31.1 19.6   704 – Lincoln Laboratory ETS, New Mexico MPS 116731
2004 10 09.20028 00 47 31.08 +06 03 52.4 19.0   704 – Lincoln Laboratory ETS, New Mexico MPS 116731
2004 10 09.21099 00 47 30.53 +06 03 47.3 19.8   704 – Lincoln Laboratory ETS, New Mexico MPS 116731
2004 10 09.22170 00 47 29.93 +06 03 40.4 19.0   704 – Lincoln Laboratory ETS, New Mexico MPS 116731
2004 10 09.23242 00 47 29.36 +06 03 35.3 19.4   704 – Lincoln Laboratory ETS, New Mexico MPS 116731
2004 10 09.24313 00 47 28.82 +06 03 28.4 19.2   704 – Lincoln Laboratory ETS, New Mexico MPS 116731
2004 10 12.15976 00 44 59.29 +05 35 58.6 19.4 V 691 – Steward Observatory, Kitt Peak-Spacewatch MPS 116731
2004 10 12.18706 00 44 57.82 +05 35 43.2 19.4 V 691 – Steward Observatory, Kitt Peak-Spacewatch MPS 116731
2004 10 12.21394 00 44 56.39 +05 35 28.1 19.4 V 691 – Steward Observatory, Kitt Peak-Spacewatch MPS 116731
2004 10 14.24477 00 43 14.14 +05 16 28.3 19.7   704 – Lincoln Laboratory ETS, New Mexico MPS 116731
2004 10 14.25415 00 43 13.68 +05 16 22.6 19.6   704 – Lincoln Laboratory ETS, New Mexico MPS 116731
2004 10 14.27296 00 43 12.72 +05 16 12.7 19.4   704 – Lincoln Laboratory ETS, New Mexico MPS 116731
2004 10 15.27534 00 42 23.40 +05 06 54.9 18.6 R G96 – Mt. Lemmon Survey MPS 117671
2004 10 15.28322 00 42 22.98 +05 06 50.6 18.8 R G96 – Mt. Lemmon Survey MPS 117671
2004 10 15.29111 00 42 22.58 +05 06 45.9 18.5 R G96 – Mt. Lemmon Survey MPS 117671
2004 10 15.29900 00 42 22.17 +05 06 41.8 18.6 R G96 – Mt. Lemmon Survey MPS 117671
2004 10 20.20591 00 38 33.45 +04 22 34.3 19.7   704 – Lincoln Laboratory ETS, New Mexico MPS 117671
2004 10 20.21531 00 38 33.07 +04 22 29.5 19.6   704 – Lincoln Laboratory ETS, New Mexico MPS 117671
2004 10 20.22472 00 38 32.65 +04 22 24.1 18.5 C 704 – Lincoln Laboratory ETS, New Mexico MPS 291439
2004 10 20.23413 00 38 32.21 +04 22 18.6 19.8   704 – Lincoln Laboratory ETS, New Mexico MPS 117671
2004 11 03.13988 00 30 42.51 +02 38 49.5 19.9 V 691 – Steward Observatory, Kitt Peak-Spacewatch MPS 118468
2004 11 03.15895 00 30 42.03 +02 38 42.9 20.0 V 691 – Steward Observatory, Kitt Peak-Spacewatch MPS 118468
2004 11 03.18210 00 30 41.48 +02 38 34.8 19.8 V 691 – Steward Observatory, Kitt Peak-Spacewatch MPS 118468
2006 03 25.23508 13 18 01.91 -09 04 13.4 21.0 V 691 – Steward Observatory, Kitt Peak-Spacewatch MPS 167078
2006 03 25.25263 13 18 00.91 -09 04 06.0 20.9 V 691 – Steward Observatory, Kitt Peak-Spacewatch MPS 167078
2006 03 25.27020 13 18 00.02 -09 03 58.7 21.0 V 691 – Steward Observatory, Kitt Peak-Spacewatch MPS 167078
2006 04 30.14035 12 46 36.80 -04 32 44.5 21.0 V 691 – Steward Observatory, Kitt Peak-Spacewatch MPS 170836
2006 04 30.15832 12 46 36.07 -04 32 38.1 20.8 V 691 – Steward Observatory, Kitt Peak-Spacewatch MPS 170836
2006 04 30.17629 12 46 35.31 -04 32 31.5 20.8 V 691 – Steward Observatory, Kitt Peak-Spacewatch MPS 170836
2006 05 01.285256 12 45 52.575 -04 25 51.58 21.20 V 645 – Apache Point-Sloan Digital Sky Survey MPS 390277
2006 05 01.288728 12 45 52.434 -04 25 50.38 21.89   645 – Apache Point-Sloan Digital Sky Survey MPS 390277
2007 11 02.11567 20 57 15.22 -13 32 53.7 21.6 V G96 – Mt. Lemmon Survey MPS 224855
2007 11 02.12443 20 57 15.73 -13 32 52.6 21.1 V G96 – Mt. Lemmon Survey MPS 224855
2007 11 02.13321 20 57 16.34 -13 32 52.0 21.7 V G96 – Mt. Lemmon Survey MPS 224855
2007 11 02.14196 20 57 16.95 -13 32 50.6 21.4 V G96 – Mt. Lemmon Survey MPS 224855
2009 02 16.34741 10 17 03.76 +03 44 55.5 20.4 V 703 – Catalina Sky Survey MPS 276491
2009 02 16.35409 10 17 03.33 +03 44 57.4 19.1 V 703 – Catalina Sky Survey MPS 276491
2009 02 16.36074 10 17 02.79 +03 45 01.4 20.1 V 703 – Catalina Sky Survey MPS 276491
2009 02 16.36740 10 17 02.50 +03 45 04.3 20.0 V 703 – Catalina Sky Survey MPS 276491
2009 02 26.27785 10 07 18.15 +05 01 18.3 19.6 V 703 – Catalina Sky Survey MPS 278627
2009 02 26.28811 10 07 17.50 +05 01 24.2 20.4 V 703 – Catalina Sky Survey MPS 278627
2009 02 26.29859 10 07 16.93 +05 01 28.1 20.5 V 703 – Catalina Sky Survey MPS 278627
2009 02 26.30897 10 07 16.24 +05 01 34.2 20.0 V 703 – Catalina Sky Survey MPS 278627
2011 11 10.50239 06 29 26.643 +16 41 17.61 20.1 i F51 – Pan-STARRS 1, Haleakala MPS 400928
2011 11 10.51498 06 29 26.692 +16 41 13.81 19.8 i F51 – Pan-STARRS 1, Haleakala MPS 400928
2013 04 15.50644 16 00 46.851 -17 06 19.24 21.3 w F51 – Pan-STARRS 1, Haleakala MPS 464803
2013 04 15.53499 16 00 45.887 -17 06 12.36 21.1 w F51 – Pan-STARRS 1, Haleakala MPS 464803
2013 04 15.54922 16 00 45.358 -17 06 08.76 21.2 w F51 – Pan-STARRS 1, Haleakala MPS 464803
2013 04 21.40540 15 57 08.60 -16 40 40.8 21.4 V G96 – Mt. Lemmon Survey MPS 465403
2013 04 21.41081 15 57 08.31 -16 40 39.2 21.0 V G96 – Mt. Lemmon Survey MPS 465403
